Time,TemperatureF,DewpointF,PressureIn,WindDirection,WindDirectionDegrees,WindSpeedMPH,WindSpeedGustMPH,Humidity,HourlyPrecipIn,Conditions,Clouds,dailyrainin,SoftwareType,DateUTC
2013-07-22 00:05:00,71.6,71.3,29.78,SW,225,0.0,-999.0,99,-99.99,,,0.00,Acu-Link.com,2013-07-22 04:05:00,
2013-07-22 00:20:00,71.4,71.1,29.78,West,270,0.0,-999.0,99,-99.99,,,0.00,Acu-Link.com,2013-07-22 04:20:00,
2013-07-22 00:35:00,71.2,70.9,29.78,West,270,0.0,-999.0,99,-99.99,,,0.00,Acu-Link.com,2013-07-22 04:35:00,
2013-07-22 00:50:00,71.1,70.8,29.78,West,270,0.0,-999.0,99,-99.99,,,0.00,Acu-Link.com,2013-07-22 04:50:00,
2013-07-22 01:05:00,70.7,70.4,29.77,SW,225,0.0,-999.0,99,-99.99,,,0.00,Acu-Link.com,2013-07-22 05:05:00,
2013-07-22 01:20:00,70.7,70.4,29.77,West,270,0.0,-999.0,99,-99.99,,,0.00,Acu-Link.com,2013-07-22 05:20:00,
2013-07-22 01:36:00,70.7,70.4,29.77,WNW,292,0.0,-999.0,99,-99.99,,,0.00,Acu-Link.com,2013-07-22 05:36:00,
2013-07-22 01:51:00,70.5,70.2,29.76,SW,225,0.0,-999.0,99,-99.99,,,0.00,Acu-Link.com,2013-07-22 05:51:00,
2013-07-22 02:06:00,70.5,70.2,29.76,West,270,0.0,-999.0,99,-99.99,,,0.00,Acu-Link.com,2013-07-22 06:06:00,
2013-07-22 02:21:00,70.5,70.2,29.75,WNW,292,0.0,-999.0,99,-99.99,,,0.00,Acu-Link.com,2013-07-22 06:21:00,
2013-07-22 02:36:00,70.5,70.2,29.75,West,270,0.0,-999.0,99,-99.99,,,0.00,Acu-Link.com,2013-07-22 06:36:00,
2013-07-22 02:51:00,70.5,70.2,29.74,SW,225,0.0,-999.0,99,-99.99,,,0.00,Acu-Link.com,2013-07-22 06:51:00,
2013-07-22 03:06:00,70.7,70.4,29.75,WSW,247,0.0,-999.0,99,-99.99,,,0.00,Acu-Link.com,2013-07-22 07:06:00,
2013-07-22 03:21:00,71.1,70.8,29.73,WSW,247,0.0,-999.0,99,-99.99,,,0.00,Acu-Link.com,2013-07-22 07:21:00,
2013-07-22 03:36:00,71.2,70.9,29.73,SW,225,0.0,-999.0,99,-99.99,,,0.00,Acu-Link.com,2013-07-22 07:36:00,
2013-07-22 03:52:00,71.4,71.1,29.73,West,270,0.0,-999.0,99,-99.99,,,0.00,Acu-Link.com,2013-07-22 07:52:00,
2013-07-22 04:07:00,71.6,71.3,29.73,SSW,202,3.2,-999.0,99,-99.99,,,0.00,Acu-Link.com,2013-07-22 08:07:00,
2013-07-22 04:23:00,71.6,71.3,29.74,West,270,0.0,-999.0,99,-99.99,,,0.00,Acu-Link.com,2013-07-22 08:23:00,
2013-07-22 04:38:00,71.6,71.3,29.73,WSW,247,0.0,-999.0,99,-99.99,,,0.00,Acu-Link.com,2013-07-22 08:38:00,
2013-07-22 04:53:00,71.8,71.5,29.73,WNW,292,0.0,-999.0,99,-99.99,,,0.00,Acu-Link.com,2013-07-22 08:53:00,
2013-07-22 05:08:00,71.8,71.5,29.73,SW,225,0.0,-999.0,99,-99.99,,,0.00,Acu-Link.com,2013-07-22 09:08:00,
2013-07-22 05:23:00,71.8,71.5,29.73,SW,225,0.0,-999.0,99,-99.99,,,0.00,Acu-Link.com,2013-07-22 09:23:00,
2013-07-22 05:38:00,71.8,71.5,29.72,WNW,292,0.0,-999.0,99,-99.99,,,0.00,Acu-Link.com,2013-07-22 09:38:00,
2013-07-22 05:54:00,71.6,71.3,29.73,WSW,247,0.0,-999.0,99,-99.99,,,0.00,Acu-Link.com,2013-07-22 09:54:00,
2013-07-22 06:09:00,71.6,71.3,29.74,West,270,0.0,-999.0,99,-99.99,,,0.00,Acu-Link.com,2013-07-22 10:09:00,
2013-07-22 06:24:00,71.6,71.3,29.74,SW,225,0.0,-999.0,99,-99.99,,,0.00,Acu-Link.com,2013-07-22 10:24:00,
2013-07-22 06:39:00,71.4,71.1,29.74,SSW,202,1.1,-999.0,99,-99.99,,,0.00,Acu-Link.com,2013-07-22 10:39:00,
2013-07-22 06:54:00,71.4,71.1,29.75,WSW,247,0.0,-999.0,99,-99.99,,,0.00,Acu-Link.com,2013-07-22 10:54:00,
2013-07-22 07:10:00,71.4,71.1,29.75,SSW,202,2.2,-999.0,99,-99.99,,,0.00,Acu-Link.com,2013-07-22 11:10:00,
2013-07-22 07:25:00,71.6,71.3,29.75,WSW,247,3.2,-999.0,99,-99.99,,,0.00,Acu-Link.com,2013-07-22 11:25:00,
2013-07-22 07:40:00,72.0,71.7,29.75,WSW,247,0.0,-999.0,99,-99.99,,,0.00,Acu-Link.com,2013-07-22 11:40:00,
2013-07-22 07:55:00,73.4,72.2,29.75,NNE,22,0.0,-999.0,96,-99.99,,,0.00,Acu-Link.com,2013-07-22 11:55:00,
2013-07-22 08:10:00,74.1,72.6,29.77,South,180,1.7,-999.0,95,-99.99,,,0.00,Acu-Link.com,2013-07-22 12:10:00,
2013-07-22 08:25:00,73.9,72.4,29.75,West,270,0.0,-999.0,95,-99.99,,,0.00,Acu-Link.com,2013-07-22 12:25:00,
2013-07-22 08:40:00,73.6,72.1,29.75,WNW,292,0.0,-999.0,95,-99.99,,,0.00,Acu-Link.com,2013-07-22 12:40:00,
2013-07-22 08:55:00,73.6,72.1,29.76,WSW,247,0.0,-999.0,95,-99.99,,,0.00,Acu-Link.com,2013-07-22 12:55:00,
2013-07-22 09:10:00,73.9,72.1,29.76,WNW,292,0.0,-999.0,94,-99.99,,,0.00,Acu-Link.com,2013-07-22 13:10:00,
2013-07-22 09:26:00,74.3,71.8,29.77,North,0,4.2,-999.0,92,-99.99,,,0.00,Acu-Link.com,2013-07-22 13:26:00,
2013-07-22 09:41:00,75.4,72.6,29.76,SW,225,1.7,-999.0,91,-99.99,,,0.00,Acu-Link.com,2013-07-22 13:41:00,
2013-07-22 09:56:00,76.1,72.9,29.75,SW,225,2.7,-999.0,90,-99.99,,,0.00,Acu-Link.com,2013-07-22 13:56:00,
2013-07-22 10:11:00,77.0,72.8,29.75,South,180,0.0,-999.0,87,-99.99,,,0.00,Acu-Link.com,2013-07-22 14:11:00,
2013-07-22 10:26:00,77.9,73.7,29.75,South,180,1.1,-999.0,87,-99.99,,,0.00,Acu-Link.com,2013-07-22 14:26:00,
2013-07-22 10:41:00,78.3,73.4,29.74,East,90,1.7,-999.0,85,-99.99,,,0.00,Acu-Link.com,2013-07-22 14:41:00,
2013-07-22 10:56:00,80.8,74.4,29.74,SW,225,1.7,-999.0,81,-99.99,,,0.00,Acu-Link.com,2013-07-22 14:56:00,
2013-07-22 11:11:00,80.2,74.2,29.75,SSW,202,1.7,-999.0,82,-99.99,,,0.00,Acu-Link.com,2013-07-22 15:11:00,
2013-07-22 11:26:00,80.2,74.6,29.75,ESE,112,2.7,-999.0,83,-99.99,,,0.00,Acu-Link.com,2013-07-22 15:26:00,
2013-07-22 11:42:00,81.1,74.3,29.74,SSW,202,2.7,-999.0,80,-99.99,,,0.00,Acu-Link.com,2013-07-22 15:42:00,
2013-07-22 11:57:00,84.6,75.4,29.74,South,180,3.2,-999.0,74,-99.99,,,0.00,Acu-Link.com,2013-07-22 15:57:00,
2013-07-22 12:12:00,82.9,74.1,29.73,SW,225,2.7,-999.0,75,-99.99,,,0.00,Acu-Link.com,2013-07-22 16:12:00,
2013-07-22 12:27:00,85.5,75.0,29.72,SSW,202,4.2,-999.0,71,-99.99,,,0.00,Acu-Link.com,2013-07-22 16:27:00,
2013-07-22 12:43:00,84.0,74.0,29.73,WNW,292,3.2,-999.0,72,-99.99,,,0.00,Acu-Link.com,2013-07-22 16:43:00,
2013-07-22 12:59:00,84.7,74.6,29.71,SSE,157,2.2,-999.0,72,-99.99,,,0.00,Acu-Link.com,2013-07-22 16:59:00,
2013-07-22 13:14:00,83.8,74.2,29.70,West,270,3.2,-999.0,73,-99.99,,,0.00,Acu-Link.com,2013-07-22 17:14:00,
2013-07-22 13:29:00,82.2,75.0,29.72,SW,225,1.7,-999.0,79,-99.99,,,0.01,Acu-Link.com,2013-07-22 17:29:00,
2013-07-22 13:44:00,79.0,74.8,29.70,South,180,4.2,-999.0,87,-99.99,,,0.01,Acu-Link.com,2013-07-22 17:44:00,
2013-07-22 13:59:00,79.2,76.0,29.70,SW,225,1.1,-999.0,90,-99.99,,,0.13,Acu-Link.com,2013-07-22 17:59:00,
2013-07-22 14:14:00,85.8,79.3,29.68,West,270,1.7,-999.0,81,-99.99,,,0.13,Acu-Link.com,2013-07-22 18:14:00,
2013-07-22 14:30:00,89.2,78.5,29.65,NNE,22,1.1,-999.0,71,-99.99,,,0.13,Acu-Link.com,2013-07-22 18:30:00,
2013-07-22 14:45:00,86.9,76.3,29.65,SSW,202,3.2,-999.0,71,-99.99,,,0.13,Acu-Link.com,2013-07-22 18:45:00,
2013-07-22 15:00:00,90.1,77.2,29.62,West,270,4.7,-999.0,66,-99.99,,,0.13,Acu-Link.com,2013-07-22 19:00:00,
2013-07-22 15:15:00,89.4,75.6,29.63,West,270,3.2,-999.0,64,-99.99,,,0.13,Acu-Link.com,2013-07-22 19:15:00,
2013-07-22 15:30:00,88.7,74.9,29.62,SSW,202,3.7,-999.0,64,-99.99,,,0.13,Acu-Link.com,2013-07-22 19:30:00,
2013-07-22 15:45:00,87.8,75.0,29.62,WSW,247,1.7,-999.0,66,-99.99,,,0.13,Acu-Link.com,2013-07-22 19:45:00,
2013-07-22 16:00:00,86.4,75.0,29.61,West,270,0.0,-999.0,69,-99.99,,,0.13,Acu-Link.com,2013-07-22 20:00:00,
2013-07-22 16:15:00,87.3,75.4,29.60,South,180,6.8,-999.0,68,-99.99,,,0.13,Acu-Link.com,2013-07-22 20:15:00,
2013-07-22 16:30:00,85.3,76.5,29.61,WNW,292,0.0,-999.0,75,-99.99,,,0.13,Acu-Link.com,2013-07-22 20:30:00,
2013-07-22 16:46:00,82.2,75.4,29.61,WNW,292,0.0,-999.0,80,-99.99,,,0.13,Acu-Link.com,2013-07-22 20:46:00,
2013-07-22 17:01:00,77.9,76.3,29.64,SW,225,2.7,-999.0,95,-99.99,,,0.26,Acu-Link.com,2013-07-22 21:01:00,
2013-07-22 17:16:00,82.4,77.8,29.62,West,270,1.1,-999.0,86,-99.99,,,0.54,Acu-Link.com,2013-07-22 21:16:00,
2013-07-22 17:31:00,86.4,79.1,29.63,West,270,0.0,-999.0,79,-99.99,,,0.54,Acu-Link.com,2013-07-22 21:31:00,
2013-07-22 17:46:00,83.7,76.5,29.61,WNW,292,2.2,-999.0,79,-99.99,,,0.54,Acu-Link.com,2013-07-22 21:46:00,
2013-07-22 18:01:00,82.6,76.5,29.60,SSW,202,0.0,-999.0,82,-99.99,,,0.54,Acu-Link.com,2013-07-22 22:01:00,
2013-07-22 18:16:00,82.6,76.5,29.61,SSW,202,0.0,-999.0,82,-99.99,,,0.54,Acu-Link.com,2013-07-22 22:16:00,
2013-07-22 18:32:00,82.9,77.2,29.61,WSW,247,0.0,-999.0,83,-99.99,,,0.54,Acu-Link.com,2013-07-22 22:32:00,
2013-07-22 18:47:00,83.1,76.6,29.61,West,270,0.0,-999.0,81,-99.99,,,0.54,Acu-Link.com,2013-07-22 22:47:00,
2013-07-22 19:02:00,81.5,75.8,29.62,WSW,247,1.1,-999.0,83,-99.99,,,0.54,Acu-Link.com,2013-07-22 23:02:00,
2013-07-22 19:17:00,80.2,74.6,29.63,South,180,0.0,-999.0,83,-99.99,,,0.55,Acu-Link.com,2013-07-22 23:17:00,
2013-07-22 19:32:00,79.2,73.6,29.65,SW,225,0.0,-999.0,83,-99.99,,,0.55,Acu-Link.com,2013-07-22 23:32:00,
2013-07-22 19:47:00,78.3,74.4,29.65,WNW,292,0.0,-999.0,88,-99.99,,,0.55,Acu-Link.com,2013-07-22 23:47:00,
2013-07-22 20:03:00,77.5,72.6,29.64,WNW,292,0.0,-999.0,85,-99.99,,,0.55,Acu-Link.com,2013-07-23 00:03:00,
2013-07-22 20:18:00,76.5,71.6,29.65,SW,225,1.7,-999.0,85,-99.99,,,0.55,Acu-Link.com,2013-07-23 00:18:00,
2013-07-22 20:33:00,75.6,71.8,29.66,West,270,0.0,-999.0,88,-99.99,,,0.55,Acu-Link.com,2013-07-23 00:33:00,
2013-07-22 20:48:00,75.0,71.9,29.67,WSW,247,0.0,-999.0,90,-99.99,,,0.55,Acu-Link.com,2013-07-23 00:48:00,
2013-07-22 21:03:00,74.3,71.2,29.68,WSW,247,0.0,-999.0,90,-99.99,,,0.55,Acu-Link.com,2013-07-23 01:03:00,
2013-07-22 21:18:00,73.8,70.7,29.69,ESE,112,0.0,-999.0,90,-99.99,,,0.55,Acu-Link.com,2013-07-23 01:18:00,
2013-07-22 21:33:00,73.2,71.0,29.70,West,270,0.0,-999.0,93,-99.99,,,0.55,Acu-Link.com,2013-07-23 01:33:00,
2013-07-22 21:49:00,72.5,70.7,29.69,ESE,112,0.0,-999.0,94,-99.99,,,0.55,Acu-Link.com,2013-07-23 01:49:00,
2013-07-22 22:04:00,72.0,70.5,29.70,West,270,0.0,-999.0,95,-99.99,,,0.55,Acu-Link.com,2013-07-23 02:04:00,
2013-07-22 22:19:00,71.2,70.6,29.70,SE,135,0.0,-999.0,98,-99.99,,,0.55,Acu-Link.com,2013-07-23 02:19:00,
2013-07-22 22:35:00,70.7,70.1,29.70,West,270,0.0,-999.0,98,-99.99,,,0.55,Acu-Link.com,2013-07-23 02:35:00,
2013-07-22 22:50:00,70.2,69.9,29.70,West,270,0.0,-999.0,99,-99.99,,,0.55,Acu-Link.com,2013-07-23 02:50:00,
2013-07-22 23:05:00,69.8,69.5,29.71,WSW,247,0.0,-999.0,99,-99.99,,,0.55,Acu-Link.com,2013-07-23 03:05:00,
2013-07-22 23:21:00,69.4,69.1,29.70,WSW,247,0.0,-999.0,99,-99.99,,,0.55,Acu-Link.com,2013-07-23 03:21:00,
2013-07-22 23:36:00,69.3,69.0,29.70,WSW,247,0.0,-999.0,99,-99.99,,,0.55,Acu-Link.com,2013-07-23 03:36:00,
2013-07-22 23:51:00,69.1,68.8,29.71,WNW,292,0.0,-999.0,99,-99.99,,,0.55,Acu-Link.com,2013-07-23 03:51:00,